Year,Month,Day,Hour,Minute,Value (Times are PST for temperature in C)
2016,05,03,00,00,16.20
2016,05,03,00,01,16.20
2016,05,03,00,02,16.20
2016,05,03,00,03,16.20
2016,05,03,00,04,16.20
2016,05,03,00,05,16.20
2016,05,03,00,06,16.20
2016,05,03,00,07,16.20
2016,05,03,00,08,16.20
2016,05,03,00,09,16.20
2016,05,03,00,10,16.20
2016,05,03,00,11,16.20
2016,05,03,00,12,16.20
2016,05,03,00,13,16.20
2016,05,03,00,14,16.20
2016,05,03,00,15,16.30
2016,05,03,00,16,16.30
2016,05,03,00,17,16.30
2016,05,03,00,18,16.30
2016,05,03,00,19,16.30
2016,05,03,00,20,16.30
2016,05,03,00,21,16.40
2016,05,03,00,22,16.40
2016,05,03,00,23,16.50
2016,05,03,00,24,16.50
2016,05,03,00,25,16.60
2016,05,03,00,26,16.60
2016,05,03,00,27,16.60
2016,05,03,00,28,16.70
2016,05,03,00,29,16.70
2016,05,03,00,30,16.70
2016,05,03,00,31,16.80
2016,05,03,00,32,16.80
2016,05,03,00,33,16.80
2016,05,03,00,34,16.80
2016,05,03,00,35,16.80
2016,05,03,00,36,16.80
2016,05,03,00,37,16.80
2016,05,03,00,38,16.80
2016,05,03,00,39,16.80
2016,05,03,00,40,16.80
2016,05,03,00,41,16.80
2016,05,03,00,42,16.70
2016,05,03,00,43,16.70
2016,05,03,00,44,16.70
2016,05,03,00,45,16.70
2016,05,03,00,46,16.70
2016,05,03,00,47,16.70
2016,05,03,00,48,16.70
2016,05,03,00,49,16.70
2016,05,03,00,50,16.70
2016,05,03,00,51,16.70
2016,05,03,00,52,16.80
2016,05,03,00,53,16.90
2016,05,03,00,54,16.90
2016,05,03,00,55,17.00
2016,05,03,00,56,17.00
2016,05,03,00,57,17.10
2016,05,03,00,58,17.10
2016,05,03,00,59,17.10
2016,05,03,01,00,17.10
2016,05,03,01,01,17.10
2016,05,03,01,02,17.10
2016,05,03,01,03,17.10
2016,05,03,01,04,17.10
2016,05,03,01,05,17.10
2016,05,03,01,06,17.10
2016,05,03,01,07,17.10
2016,05,03,01,08,17.10
2016,05,03,01,09,17.10
2016,05,03,01,10,17.00
2016,05,03,01,11,17.00
2016,05,03,01,12,17.00
2016,05,03,01,13,16.90
2016,05,03,01,14,16.90
2016,05,03,01,15,16.80
2016,05,03,01,16,16.80
2016,05,03,01,17,16.80
2016,05,03,01,18,16.80
2016,05,03,01,19,16.80
2016,05,03,01,20,16.80
2016,05,03,01,21,16.70
2016,05,03,01,22,16.70
2016,05,03,01,23,16.70
2016,05,03,01,24,16.70
2016,05,03,01,25,16.60
2016,05,03,01,26,16.60
2016,05,03,01,27,16.60
2016,05,03,01,28,16.60
2016,05,03,01,29,16.60
2016,05,03,01,30,16.50
2016,05,03,01,31,16.50
2016,05,03,01,32,16.40
2016,05,03,01,33,16.40
2016,05,03,01,34,16.40
2016,05,03,01,35,16.40
2016,05,03,01,36,16.30
2016,05,03,01,37,16.30
2016,05,03,01,38,16.30
2016,05,03,01,39,16.30
2016,05,03,01,40,16.30
2016,05,03,01,41,16.30
2016,05,03,01,42,16.20
2016,05,03,01,43,16.20
2016,05,03,01,44,16.20
2016,05,03,01,45,16.10
2016,05,03,01,46,16.10
2016,05,03,01,47,16.10
2016,05,03,01,48,16.10
2016,05,03,01,49,16.10
2016,05,03,01,50,16.00
2016,05,03,01,51,16.00
2016,05,03,01,52,15.90
2016,05,03,01,53,15.80
2016,05,03,01,54,15.80
2016,05,03,01,55,15.80
2016,05,03,01,56,15.80
2016,05,03,01,57,15.70
2016,05,03,01,58,15.70
2016,05,03,01,59,15.70
2016,05,03,02,00,15.70
2016,05,03,02,01,15.70
2016,05,03,02,02,15.60
2016,05,03,02,03,15.60
2016,05,03,02,04,15.60
2016,05,03,02,05,15.60
2016,05,03,02,06,15.50
2016,05,03,02,07,15.50
2016,05,03,02,08,15.50
2016,05,03,02,09,15.50
2016,05,03,02,10,15.50
2016,05,03,02,11,15.50
2016,05,03,02,12,15.50
2016,05,03,02,13,15.50
2016,05,03,02,14,15.50
2016,05,03,02,15,15.50
2016,05,03,02,16,15.50
2016,05,03,02,17,15.50
2016,05,03,02,18,15.50
2016,05,03,02,19,15.50
2016,05,03,02,20,15.50
2016,05,03,02,21,15.60
2016,05,03,02,22,15.60
2016,05,03,02,23,15.60
2016,05,03,02,24,15.60
2016,05,03,02,25,15.50
2016,05,03,02,26,15.60
2016,05,03,02,27,15.60
2016,05,03,02,28,15.60
2016,05,03,02,29,15.60
2016,05,03,02,30,15.60
2016,05,03,02,31,15.60
2016,05,03,02,32,15.60
2016,05,03,02,33,15.60
2016,05,03,02,34,15.60
2016,05,03,02,35,15.60
2016,05,03,02,36,15.60
2016,05,03,02,37,15.60
2016,05,03,02,38,15.60
2016,05,03,02,39,15.60
2016,05,03,02,40,15.60
2016,05,03,02,41,15.60
2016,05,03,02,42,15.60
2016,05,03,02,43,15.60
2016,05,03,02,44,15.60
2016,05,03,02,45,15.60
2016,05,03,02,46,15.60
2016,05,03,02,47,15.60
2016,05,03,02,48,15.60
2016,05,03,02,49,15.60
2016,05,03,02,50,15.60
2016,05,03,02,51,15.60
2016,05,03,02,52,15.60
2016,05,03,02,53,15.60
2016,05,03,02,54,15.60
2016,05,03,02,55,15.60
2016,05,03,02,56,15.60
2016,05,03,02,57,15.60
2016,05,03,02,58,15.50
2016,05,03,02,59,15.50
2016,05,03,03,00,15.40
2016,05,03,03,01,15.40
2016,05,03,03,02,15.40
2016,05,03,03,03,15.30
2016,05,03,03,04,15.30
2016,05,03,03,05,15.30
2016,05,03,03,06,15.10
2016,05,03,03,07,15.10
2016,05,03,03,08,15.10
2016,05,03,03,09,15.10
2016,05,03,03,10,15.20
2016,05,03,03,11,15.30
2016,05,03,03,12,15.40
2016,05,03,03,13,15.40
2016,05,03,03,14,15.50
2016,05,03,03,15,15.50
2016,05,03,03,16,15.50
2016,05,03,03,17,15.50
2016,05,03,03,18,15.50
2016,05,03,03,19,15.50
2016,05,03,03,20,15.50
2016,05,03,03,21,15.50
2016,05,03,03,22,15.50
2016,05,03,03,23,15.50
2016,05,03,03,24,15.50
2016,05,03,03,25,15.50
2016,05,03,03,26,15.50
2016,05,03,03,27,15.50
2016,05,03,03,28,15.50
2016,05,03,03,29,15.50
2016,05,03,03,30,15.40
2016,05,03,03,31,15.40
2016,05,03,03,32,15.40
2016,05,03,03,33,15.40
2016,05,03,03,34,15.40
2016,05,03,03,35,15.40
2016,05,03,03,36,15.40
2016,05,03,03,37,15.40
2016,05,03,03,38,15.40
2016,05,03,03,39,15.40
2016,05,03,03,40,15.40
2016,05,03,03,41,15.30
2016,05,03,03,42,15.30
2016,05,03,03,43,15.30
2016,05,03,03,44,15.30
2016,05,03,03,45,15.30
2016,05,03,03,46,15.40
2016,05,03,03,47,15.50
2016,05,03,03,48,15.60
2016,05,03,03,49,15.70
2016,05,03,03,50,15.70
2016,05,03,03,51,15.80
2016,05,03,03,52,15.80
2016,05,03,03,53,15.80
2016,05,03,03,54,15.80
2016,05,03,03,55,15.80
2016,05,03,03,56,15.70
2016,05,03,03,57,15.70
2016,05,03,03,58,15.70
2016,05,03,03,59,15.70
2016,05,03,04,00,15.60
2016,05,03,04,01,15.60
2016,05,03,04,02,15.50
2016,05,03,04,03,15.40
2016,05,03,04,04,15.20
2016,05,03,04,05,15.10
2016,05,03,04,06,14.90
2016,05,03,04,07,14.80
2016,05,03,04,08,14.70
2016,05,03,04,09,14.60
2016,05,03,04,10,14.60
2016,05,03,04,11,14.50
2016,05,03,04,12,14.50
2016,05,03,04,13,14.50
2016,05,03,04,14,14.40
2016,05,03,04,15,14.50
2016,05,03,04,16,14.40
2016,05,03,04,17,14.40
2016,05,03,04,18,14.40
2016,05,03,04,19,14.40
2016,05,03,04,20,14.30
2016,05,03,04,21,14.30
2016,05,03,04,22,14.20
2016,05,03,04,23,14.10
2016,05,03,04,24,14.00
2016,05,03,04,25,14.00
2016,05,03,04,26,14.00
2016,05,03,04,27,13.90
2016,05,03,04,28,13.90
2016,05,03,04,29,13.90
2016,05,03,04,30,13.90
2016,05,03,04,31,13.90
2016,05,03,04,32,13.80
2016,05,03,04,33,13.80
2016,05,03,04,34,13.80
2016,05,03,04,35,13.80
2016,05,03,04,36,13.80
2016,05,03,04,37,13.80
2016,05,03,04,38,13.80
2016,05,03,04,39,13.80
2016,05,03,04,40,13.80
2016,05,03,04,41,13.80
2016,05,03,04,42,13.90
2016,05,03,04,43,13.90
2016,05,03,04,44,13.90
2016,05,03,04,45,13.90
2016,05,03,04,46,13.90
2016,05,03,04,47,13.90
2016,05,03,04,48,13.80
2016,05,03,04,49,13.80
2016,05,03,04,50,13.80
2016,05,03,04,51,13.80
2016,05,03,04,52,13.80
2016,05,03,04,53,13.80
2016,05,03,04,54,13.80
2016,05,03,04,55,13.80
2016,05,03,04,56,13.80
2016,05,03,04,57,13.80
2016,05,03,04,58,13.80
2016,05,03,04,59,13.80
2016,05,03,05,00,13.80
2016,05,03,05,01,13.80
2016,05,03,05,02,13.80
2016,05,03,05,03,13.80
2016,05,03,05,04,13.70
2016,05,03,05,05,13.70
2016,05,03,05,06,13.70
2016,05,03,05,07,13.70
2016,05,03,05,08,13.70
2016,05,03,05,09,13.70
2016,05,03,05,10,13.70
2016,05,03,05,11,13.70
2016,05,03,05,12,13.70
2016,05,03,05,13,13.60
2016,05,03,05,14,13.60
2016,05,03,05,15,13.60
2016,05,03,05,16,13.60
2016,05,03,05,17,13.60
2016,05,03,05,18,13.60
2016,05,03,05,19,13.60
2016,05,03,05,20,13.60
2016,05,03,05,21,13.60
2016,05,03,05,22,13.60
2016,05,03,05,23,13.60
2016,05,03,05,24,13.60
2016,05,03,05,25,13.60
2016,05,03,05,26,13.60
2016,05,03,05,27,13.60
2016,05,03,05,28,13.60
2016,05,03,05,29,13.60
2016,05,03,05,30,13.60
2016,05,03,05,31,13.60
2016,05,03,05,32,13.60
2016,05,03,05,33,13.60
2016,05,03,05,34,13.60
2016,05,03,05,35,13.60
2016,05,03,05,36,13.60
2016,05,03,05,37,13.60
2016,05,03,05,38,13.60
2016,05,03,05,39,13.60
2016,05,03,05,40,13.60
2016,05,03,05,41,13.60
2016,05,03,05,42,13.60
2016,05,03,05,43,13.60
2016,05,03,05,44,13.60
2016,05,03,05,45,13.60
2016,05,03,05,46,13.60
2016,05,03,05,47,13.60
2016,05,03,05,48,13.60
2016,05,03,05,49,13.60
2016,05,03,05,50,13.60
2016,05,03,05,51,13.60
2016,05,03,05,52,13.60
2016,05,03,05,53,13.60
2016,05,03,05,54,13.60
2016,05,03,05,55,13.60
2016,05,03,05,56,13.60
2016,05,03,05,57,13.60
2016,05,03,05,58,13.60
2016,05,03,05,59,13.60
2016,05,03,06,00,13.60
2016,05,03,06,01,13.60
2016,05,03,06,02,13.60
2016,05,03,06,03,13.60
2016,05,03,06,04,13.60
2016,05,03,06,05,13.60
2016,05,03,06,06,13.60
2016,05,03,06,07,13.60
2016,05,03,06,08,13.60
2016,05,03,06,09,13.60
2016,05,03,06,10,13.60
2016,05,03,06,11,13.60
2016,05,03,06,12,13.60
2016,05,03,06,13,13.60
2016,05,03,06,14,13.60
2016,05,03,06,15,13.60
2016,05,03,06,16,13.60
2016,05,03,06,17,13.60
2016,05,03,06,18,13.60
2016,05,03,06,19,13.60
2016,05,03,06,20,13.60
2016,05,03,06,21,13.60
2016,05,03,06,22,13.60
2016,05,03,06,23,13.60
2016,05,03,06,24,13.60
2016,05,03,06,25,13.60
2016,05,03,06,26,13.70
2016,05,03,06,27,13.70
2016,05,03,06,28,13.70
2016,05,03,06,29,13.70
2016,05,03,06,30,13.70
2016,05,03,06,31,13.70
2016,05,03,06,32,13.70
2016,05,03,06,33,13.70
2016,05,03,06,34,13.80
2016,05,03,06,35,13.80
2016,05,03,06,36,13.80
2016,05,03,06,37,13.80
2016,05,03,06,38,13.80
2016,05,03,06,39,13.80
2016,05,03,06,40,13.80
2016,05,03,06,41,13.80
2016,05,03,06,42,13.80
2016,05,03,06,43,13.80
2016,05,03,06,44,13.80
2016,05,03,06,45,13.80
2016,05,03,06,46,13.80
2016,05,03,06,47,13.80
2016,05,03,06,48,13.80
2016,05,03,06,49,13.80
2016,05,03,06,50,13.80
2016,05,03,06,51,13.80
2016,05,03,06,52,13.80
2016,05,03,06,53,13.80
2016,05,03,06,54,13.80
2016,05,03,06,55,13.90
2016,05,03,06,56,13.90
2016,05,03,06,57,13.90
2016,05,03,06,58,13.90
2016,05,03,06,59,13.90
2016,05,03,07,00,13.90
2016,05,03,07,01,13.90
2016,05,03,07,02,13.90
2016,05,03,07,03,13.90
2016,05,03,07,04,13.90
2016,05,03,07,05,13.90
2016,05,03,07,06,13.90
2016,05,03,07,07,13.90
2016,05,03,07,08,13.90
2016,05,03,07,09,13.90
2016,05,03,07,10,13.90
2016,05,03,07,11,13.90
2016,05,03,07,12,14.00
2016,05,03,07,13,14.00
2016,05,03,07,14,14.00
2016,05,03,07,15,14.00
2016,05,03,07,16,14.00
2016,05,03,07,17,14.00
2016,05,03,07,18,14.00
2016,05,03,07,19,14.00
2016,05,03,07,20,14.00
2016,05,03,07,21,14.00
2016,05,03,07,22,14.10
2016,05,03,07,23,14.10
2016,05,03,07,24,14.10
2016,05,03,07,25,14.20
2016,05,03,07,26,14.20
2016,05,03,07,27,14.30
2016,05,03,07,28,14.30
2016,05,03,07,29,14.40
2016,05,03,07,30,14.40
2016,05,03,07,31,14.50
2016,05,03,07,32,14.50
2016,05,03,07,33,14.60
2016,05,03,07,34,14.60
2016,05,03,07,35,14.60
2016,05,03,07,36,14.70
2016,05,03,07,37,14.70
2016,05,03,07,38,14.80
2016,05,03,07,39,14.80
2016,05,03,07,40,14.80
2016,05,03,07,41,14.90
2016,05,03,07,42,15.00
2016,05,03,07,43,15.00
2016,05,03,07,44,15.10
2016,05,03,07,45,15.10
2016,05,03,07,46,15.20
2016,05,03,07,47,15.20
2016,05,03,07,48,15.30
2016,05,03,07,49,15.30
2016,05,03,07,50,15.40
2016,05,03,07,51,15.40
2016,05,03,07,52,15.50
2016,05,03,07,53,15.60
2016,05,03,07,54,15.60
2016,05,03,07,55,15.60
2016,05,03,07,56,15.70
2016,05,03,07,57,15.70
2016,05,03,07,58,15.70
2016,05,03,07,59,15.70
2016,05,03,08,00,15.80
2016,05,03,08,01,15.80
2016,05,03,08,02,15.80
2016,05,03,08,03,15.80
2016,05,03,08,04,15.80
2016,05,03,08,05,15.80
2016,05,03,08,06,15.90
2016,05,03,08,07,15.90
2016,05,03,08,08,15.90
2016,05,03,08,09,15.90
2016,05,03,08,10,15.90
2016,05,03,08,11,15.90
2016,05,03,08,12,15.90
2016,05,03,08,13,16.00
2016,05,03,08,14,16.00
2016,05,03,08,15,16.10
2016,05,03,08,16,16.10
2016,05,03,08,17,16.20
2016,05,03,08,18,16.20
2016,05,03,08,19,16.20
2016,05,03,08,20,16.20
2016,05,03,08,21,16.20
2016,05,03,08,22,16.20
2016,05,03,08,23,16.20
2016,05,03,08,24,16.30
2016,05,03,08,25,16.30
2016,05,03,08,26,16.30
2016,05,03,08,27,16.30
2016,05,03,08,28,16.30
2016,05,03,08,29,16.30
2016,05,03,08,30,16.30
2016,05,03,08,31,16.30
2016,05,03,08,32,16.30
2016,05,03,08,33,16.30
2016,05,03,08,34,16.30
2016,05,03,08,35,16.30
2016,05,03,08,36,16.30
2016,05,03,08,37,16.30
2016,05,03,08,38,16.40
2016,05,03,08,39,16.40
2016,05,03,08,40,16.50
2016,05,03,08,41,16.60
2016,05,03,08,42,16.60
2016,05,03,08,43,16.60
2016,05,03,08,44,16.70
2016,05,03,08,45,16.70
2016,05,03,08,46,16.70
2016,05,03,08,47,16.80
2016,05,03,08,48,16.80
2016,05,03,08,49,16.90
2016,05,03,08,50,16.90
2016,05,03,08,51,16.90
2016,05,03,08,52,16.90
2016,05,03,08,53,17.00
2016,05,03,08,54,17.00
2016,05,03,08,55,17.10
2016,05,03,08,56,17.10
2016,05,03,08,57,17.20
2016,05,03,08,58,17.20
2016,05,03,08,59,17.30
2016,05,03,09,00,17.30
2016,05,03,09,01,17.30
2016,05,03,09,02,17.30
2016,05,03,09,03,17.30
2016,05,03,09,04,17.30
2016,05,03,09,05,17.30
2016,05,03,09,06,17.30
2016,05,03,09,07,17.30
2016,05,03,09,08,17.30
2016,05,03,09,09,17.30
2016,05,03,09,10,17.30
2016,05,03,09,11,17.30
2016,05,03,09,12,17.30
2016,05,03,09,13,17.30
2016,05,03,09,14,17.30
2016,05,03,09,15,17.30
2016,05,03,09,16,17.30
2016,05,03,09,17,17.30
2016,05,03,09,18,17.30
2016,05,03,09,19,17.30
2016,05,03,09,20,17.40
2016,05,03,09,21,17.40
2016,05,03,09,22,17.40
2016,05,03,09,23,17.40
2016,05,03,09,24,17.40
2016,05,03,09,25,17.40
2016,05,03,09,26,17.40
2016,05,03,09,27,17.40
2016,05,03,09,28,17.50
2016,05,03,09,29,17.50
2016,05,03,09,30,17.50
2016,05,03,09,31,17.50
2016,05,03,09,32,17.60
2016,05,03,09,33,17.60
2016,05,03,09,34,17.60
2016,05,03,09,35,17.60
2016,05,03,09,36,17.60
2016,05,03,09,37,17.60
2016,05,03,09,38,17.60
2016,05,03,09,39,17.70
2016,05,03,09,40,17.70
2016,05,03,09,41,17.70
2016,05,03,09,42,17.70
2016,05,03,09,43,17.70
2016,05,03,09,44,17.70
2016,05,03,09,45,17.70
2016,05,03,09,46,17.80
2016,05,03,09,47,17.80
2016,05,03,09,48,17.80
2016,05,03,09,49,17.80
2016,05,03,09,50,17.80
2016,05,03,09,51,17.80
2016,05,03,09,52,17.80
2016,05,03,09,53,17.80
2016,05,03,09,54,17.80
2016,05,03,09,55,17.80
2016,05,03,09,56,17.80
2016,05,03,09,57,17.80
2016,05,03,09,58,17.80
2016,05,03,09,59,17.80
2016,05,03,10,00,17.80
2016,05,03,10,01,17.80
2016,05,03,10,02,17.80
2016,05,03,10,03,17.80
2016,05,03,10,04,17.80
2016,05,03,10,05,17.90
2016,05,03,10,06,17.90
2016,05,03,10,07,17.90
2016,05,03,10,08,17.90
2016,05,03,10,09,18.00
2016,05,03,10,10,18.10
2016,05,03,10,11,18.20
2016,05,03,10,12,18.20
2016,05,03,10,13,18.20
2016,05,03,10,14,18.20
2016,05,03,10,15,18.20
2016,05,03,10,16,18.20
2016,05,03,10,17,18.20
2016,05,03,10,18,18.20
2016,05,03,10,19,18.30
2016,05,03,10,20,18.30
2016,05,03,10,21,18.40
2016,05,03,10,22,18.40
2016,05,03,10,23,18.50
2016,05,03,10,24,18.60
2016,05,03,10,25,18.60
2016,05,03,10,26,18.70
2016,05,03,10,27,18.70
2016,05,03,10,28,18.80
2016,05,03,10,29,18.80
2016,05,03,10,30,18.90
2016,05,03,10,31,19.00
2016,05,03,10,32,19.00
2016,05,03,10,33,19.10
2016,05,03,10,34,19.10
2016,05,03,10,35,19.10
2016,05,03,10,36,19.10
2016,05,03,10,37,19.10
2016,05,03,10,38,19.20
2016,05,03,10,39,19.20
2016,05,03,10,40,19.30
2016,05,03,10,41,19.30
2016,05,03,10,42,19.30
2016,05,03,10,43,19.30
2016,05,03,10,44,19.30
2016,05,03,10,45,19.30
2016,05,03,10,46,19.40
2016,05,03,10,47,19.40
2016,05,03,10,48,19.40
2016,05,03,10,49,19.40
2016,05,03,10,50,19.40
2016,05,03,10,51,19.50
2016,05,03,10,52,19.60
2016,05,03,10,53,19.70
2016,05,03,10,54,19.80
2016,05,03,10,55,19.80
2016,05,03,10,56,19.80
2016,05,03,10,57,19.90
2016,05,03,10,58,19.90
2016,05,03,10,59,20.00
2016,05,03,11,00,20.00
2016,05,03,11,01,20.00
2016,05,03,11,02,20.10
2016,05,03,11,03,20.10
2016,05,03,11,04,20.20
2016,05,03,11,05,20.20
2016,05,03,11,06,20.30
2016,05,03,11,07,20.20
2016,05,03,11,08,20.20
2016,05,03,11,09,20.20
2016,05,03,11,10,20.20
2016,05,03,11,11,20.20
2016,05,03,11,12,20.20
2016,05,03,11,13,20.30
2016,05,03,11,14,20.30
2016,05,03,11,15,20.30
2016,05,03,11,16,20.20
2016,05,03,11,17,20.10
2016,05,03,11,18,20.00
2016,05,03,11,19,19.90
2016,05,03,11,20,19.90
2016,05,03,11,21,19.80
2016,05,03,11,22,19.80
2016,05,03,11,23,19.80
2016,05,03,11,24,19.80
2016,05,03,11,25,19.80
2016,05,03,11,26,19.70
2016,05,03,11,27,19.70
2016,05,03,11,28,19.60
2016,05,03,11,29,19.60
2016,05,03,11,30,19.50
2016,05,03,11,31,19.50
2016,05,03,11,32,19.60
2016,05,03,11,33,19.60
2016,05,03,11,34,19.60
2016,05,03,11,35,19.60
2016,05,03,11,36,19.60
2016,05,03,11,37,19.60
2016,05,03,11,38,19.60
2016,05,03,11,39,19.60
2016,05,03,11,40,19.60
2016,05,03,11,41,19.60
2016,05,03,11,42,19.70
2016,05,03,11,43,19.70
2016,05,03,11,44,19.70
2016,05,03,11,45,19.80
2016,05,03,11,46,19.80
2016,05,03,11,47,19.80
2016,05,03,11,48,19.80
2016,05,03,11,49,19.90
2016,05,03,11,50,19.90
2016,05,03,11,51,19.80
2016,05,03,11,52,19.80
2016,05,03,11,53,19.90
2016,05,03,11,54,19.90
2016,05,03,11,55,20.00
2016,05,03,11,56,20.10
2016,05,03,11,57,20.10
2016,05,03,11,58,20.20
2016,05,03,11,59,20.20
2016,05,03,12,00,20.20
2016,05,03,12,01,20.20
2016,05,03,12,02,20.20
2016,05,03,12,03,20.20
2016,05,03,12,04,20.30
2016,05,03,12,05,20.30
2016,05,03,12,06,20.40
2016,05,03,12,07,20.50
2016,05,03,12,08,20.60
2016,05,03,12,09,20.70
2016,05,03,12,10,20.70
2016,05,03,12,11,20.70
2016,05,03,12,12,20.60
2016,05,03,12,13,20.50
2016,05,03,12,14,20.40
2016,05,03,12,15,20.40
2016,05,03,12,16,20.40
2016,05,03,12,17,20.50
2016,05,03,12,18,20.60
2016,05,03,12,19,20.60
2016,05,03,12,20,20.60
2016,05,03,12,21,20.70
2016,05,03,12,22,20.70
2016,05,03,12,23,20.70
2016,05,03,12,24,20.70
2016,05,03,12,25,20.70
2016,05,03,12,26,20.70
2016,05,03,12,27,20.70
2016,05,03,12,28,20.60
2016,05,03,12,29,20.60
2016,05,03,12,30,20.60
2016,05,03,12,31,20.60
2016,05,03,12,32,20.60
2016,05,03,12,33,20.60
2016,05,03,12,34,20.60
2016,05,03,12,35,20.70
2016,05,03,12,36,20.70
2016,05,03,12,37,20.70
2016,05,03,12,38,20.80
2016,05,03,12,39,20.70
2016,05,03,12,40,20.70
2016,05,03,12,41,20.70
2016,05,03,12,42,20.70
2016,05,03,12,43,20.80
2016,05,03,12,44,20.80
2016,05,03,12,45,20.90
2016,05,03,12,46,21.00
2016,05,03,12,47,21.00
2016,05,03,12,48,21.10
2016,05,03,12,49,21.10
2016,05,03,12,50,21.20
2016,05,03,12,51,21.30
2016,05,03,12,52,21.30
2016,05,03,12,53,21.30
2016,05,03,12,54,21.30
2016,05,03,12,55,21.40
2016,05,03,12,56,21.40
2016,05,03,12,57,21.50
2016,05,03,12,58,21.50
2016,05,03,12,59,21.60
2016,05,03,13,00,21.60
2016,05,03,13,01,21.60
2016,05,03,13,02,21.60
2016,05,03,13,03,21.50
2016,05,03,13,04,21.40
2016,05,03,13,05,21.40
2016,05,03,13,06,21.40
2016,05,03,13,07,21.50
2016,05,03,13,08,21.40
2016,05,03,13,09,21.40
2016,05,03,13,10,21.30
2016,05,03,13,11,21.30
2016,05,03,13,12,21.30
2016,05,03,13,13,21.50
2016,05,03,13,14,21.60
2016,05,03,13,15,21.60
2016,05,03,13,16,21.60
2016,05,03,13,17,21.60
2016,05,03,13,18,21.60
2016,05,03,13,19,21.60
2016,05,03,13,20,21.50
2016,05,03,13,21,21.50
2016,05,03,13,22,21.50
2016,05,03,13,23,21.50
2016,05,03,13,24,21.50
2016,05,03,13,25,21.50
2016,05,03,13,26,21.60
2016,05,03,13,27,21.70
2016,05,03,13,28,21.80
2016,05,03,13,29,21.80
2016,05,03,13,30,21.90
2016,05,03,13,31,21.90
2016,05,03,13,32,21.90
2016,05,03,13,33,21.90
2016,05,03,13,34,21.80
2016,05,03,13,35,21.70
2016,05,03,13,36,21.70
2016,05,03,13,37,21.70
2016,05,03,13,38,21.70
2016,05,03,13,39,21.80
2016,05,03,13,40,21.90
2016,05,03,13,41,22.00
2016,05,03,13,42,22.00
2016,05,03,13,43,22.10
2016,05,03,13,44,22.10
2016,05,03,13,45,22.00
2016,05,03,13,46,21.90
2016,05,03,13,47,21.90
2016,05,03,13,48,21.80
2016,05,03,13,49,21.80
2016,05,03,13,50,21.80
2016,05,03,13,51,21.90
2016,05,03,13,52,21.90
2016,05,03,13,53,22.00
2016,05,03,13,54,22.10
2016,05,03,13,55,22.10
2016,05,03,13,56,22.10
2016,05,03,13,57,22.10
2016,05,03,13,58,22.10
2016,05,03,13,59,22.20
2016,05,03,14,00,22.10
2016,05,03,14,01,22.20
2016,05,03,14,02,22.20
2016,05,03,14,03,22.30
2016,05,03,14,04,22.50
2016,05,03,14,05,22.70
2016,05,03,14,06,22.80
2016,05,03,14,07,22.90
2016,05,03,14,08,23.00
2016,05,03,14,09,23.00
2016,05,03,14,10,22.90
2016,05,03,14,11,22.90
2016,05,03,14,12,22.80
2016,05,03,14,13,22.80
2016,05,03,14,14,22.90
2016,05,03,14,15,23.00
2016,05,03,14,16,23.10
2016,05,03,14,17,23.20
2016,05,03,14,18,23.20
2016,05,03,14,19,23.10
2016,05,03,14,20,23.00
2016,05,03,14,21,22.90
2016,05,03,14,22,22.80
2016,05,03,14,23,22.40
2016,05,03,14,24,22.20
2016,05,03,14,25,22.00
2016,05,03,14,26,22.00
2016,05,03,14,27,22.10
2016,05,03,14,28,22.20
2016,05,03,14,29,22.20
2016,05,03,14,30,22.20
2016,05,03,14,31,22.10
2016,05,03,14,32,21.90
2016,05,03,14,33,21.80
2016,05,03,14,34,21.70
2016,05,03,14,35,21.70
2016,05,03,14,36,21.80
2016,05,03,14,37,21.90
2016,05,03,14,38,22.00
2016,05,03,14,39,22.00
2016,05,03,14,40,21.90
2016,05,03,14,41,21.80
2016,05,03,14,42,21.60
2016,05,03,14,43,21.50
2016,05,03,14,44,21.50
2016,05,03,14,45,21.50
2016,05,03,14,46,21.60
2016,05,03,14,47,21.60
2016,05,03,14,48,21.50
2016,05,03,14,49,21.50
2016,05,03,14,50,21.50
2016,05,03,14,51,21.60
2016,05,03,14,52,21.50
2016,05,03,14,53,21.50
2016,05,03,14,54,21.50
2016,05,03,14,55,21.40
2016,05,03,14,56,21.30
2016,05,03,14,57,21.30
2016,05,03,14,58,21.30
2016,05,03,14,59,21.30
2016,05,03,15,00,21.30
2016,05,03,15,01,21.30
2016,05,03,15,02,21.10
2016,05,03,15,03,21.00
2016,05,03,15,04,21.10
2016,05,03,15,05,21.10
2016,05,03,15,06,21.10
2016,05,03,15,07,21.10
2016,05,03,15,08,21.00
2016,05,03,15,09,21.00
2016,05,03,15,10,20.90
2016,05,03,15,11,21.00
2016,05,03,15,12,21.10
2016,05,03,15,13,21.10
2016,05,03,15,14,21.20
2016,05,03,15,15,21.20
2016,05,03,15,16,21.30
2016,05,03,15,17,21.30
2016,05,03,15,18,21.30
2016,05,03,15,19,21.20
2016,05,03,15,20,21.20
2016,05,03,15,21,21.10
2016,05,03,15,22,21.00
2016,05,03,15,23,21.00
2016,05,03,15,24,20.90
2016,05,03,15,25,20.90
2016,05,03,15,26,20.80
2016,05,03,15,27,20.80
2016,05,03,15,28,20.70
2016,05,03,15,29,20.70
2016,05,03,15,30,20.60
2016,05,03,15,31,20.50
2016,05,03,15,32,20.30
2016,05,03,15,33,20.20
2016,05,03,15,34,20.10
2016,05,03,15,35,20.00
2016,05,03,15,36,19.90
2016,05,03,15,37,19.90
2016,05,03,15,38,19.80
2016,05,03,15,39,19.80
2016,05,03,15,40,19.70
2016,05,03,15,41,19.70
2016,05,03,15,42,19.60
2016,05,03,15,43,19.50
2016,05,03,15,44,19.40
2016,05,03,15,45,19.40
2016,05,03,15,46,19.30
2016,05,03,15,47,19.20
2016,05,03,15,48,19.20
2016,05,03,15,49,19.10
2016,05,03,15,50,19.10
2016,05,03,15,51,19.00
2016,05,03,15,52,19.00
2016,05,03,15,53,18.90
2016,05,03,15,54,18.90
2016,05,03,15,55,18.90
2016,05,03,15,56,18.90
2016,05,03,15,57,19.00
2016,05,03,15,58,19.10
2016,05,03,15,59,19.10
2016,05,03,16,00,19.10
2016,05,03,16,01,19.10
2016,05,03,16,02,19.20
2016,05,03,16,03,19.20
2016,05,03,16,04,19.30
2016,05,03,16,05,19.30
2016,05,03,16,06,19.30
2016,05,03,16,07,19.30
2016,05,03,16,08,19.30
2016,05,03,16,09,19.40
2016,05,03,16,10,19.40
2016,05,03,16,11,19.40
2016,05,03,16,12,19.30
2016,05,03,16,13,19.30
2016,05,03,16,14,19.30
2016,05,03,16,15,19.30
2016,05,03,16,16,19.30
2016,05,03,16,17,19.30
2016,05,03,16,18,19.30
2016,05,03,16,19,19.20
2016,05,03,16,20,19.30
2016,05,03,16,21,19.40
2016,05,03,16,22,19.50
2016,05,03,16,23,19.60
2016,05,03,16,24,19.60
2016,05,03,16,25,19.60
2016,05,03,16,26,19.60
2016,05,03,16,27,19.60
2016,05,03,16,28,19.60
2016,05,03,16,29,19.60
2016,05,03,16,30,19.60
2016,05,03,16,31,19.60
2016,05,03,16,32,19.50
2016,05,03,16,33,19.50
2016,05,03,16,34,19.50
2016,05,03,16,35,19.50
2016,05,03,16,36,19.50
2016,05,03,16,37,19.60
2016,05,03,16,38,19.60
2016,05,03,16,39,19.60
2016,05,03,16,40,19.70
2016,05,03,16,41,19.80
2016,05,03,16,42,19.80
2016,05,03,16,43,19.80
2016,05,03,16,44,19.80
2016,05,03,16,45,19.90
2016,05,03,16,46,19.90
2016,05,03,16,47,19.80
2016,05,03,16,48,19.80
2016,05,03,16,49,19.80
2016,05,03,16,50,19.90
2016,05,03,16,51,19.90
2016,05,03,16,52,20.00
2016,05,03,16,53,20.00
2016,05,03,16,54,20.00
2016,05,03,16,55,20.10
2016,05,03,16,56,20.10
2016,05,03,16,57,20.20
2016,05,03,16,58,20.20
2016,05,03,16,59,20.30
2016,05,03,17,00,20.30
2016,05,03,17,01,20.40
2016,05,03,17,02,20.40
2016,05,03,17,03,20.40
2016,05,03,17,04,20.40
2016,05,03,17,05,20.40
2016,05,03,17,06,20.30
2016,05,03,17,07,20.30
2016,05,03,17,08,20.30
2016,05,03,17,09,20.30
2016,05,03,17,10,20.30
2016,05,03,17,11,20.30
2016,05,03,17,12,20.30
2016,05,03,17,13,20.20
2016,05,03,17,14,20.20
2016,05,03,17,15,20.10
2016,05,03,17,16,20.00
2016,05,03,17,17,20.00
2016,05,03,17,18,19.90
2016,05,03,17,19,19.90